This demonstration page uses our WeatherBlox Daily Observations layout. Learn more.

Left ArrowRight Arrow

41.86663, -103.66717

Hourly Observations for March 7, 2018

Temp ( °F °C ) Dew Point ( °F °C ) Humidity (%) Winds ( mph kmh ) Pressure ( in mb ) Visibility ( mi km ) Precip ( " mm )
12:53 am 00:53 Clear 18 -7.8 14 -10 84 84 NNW 7 11 30.33 1027 10 16 N/A
1:53 am 01:53 Clear 19 -7.2 14 -10 81 81 N N/A 30.31 1027 10 16 N/A
2:53 am 02:53 Clear 17 -8.3 12 -11.1 80 80 N N/A 30.30 1026 10 16 N/A
3:53 am 03:53 Clear 18 -7.8 14 -10 84 84 NE 7 11 30.29 1026 10 16 N/A
4:53 am 04:53 Clear 17 -8.3 13 -10.6 84 84 N N/A 30.29 1026 10 16 N/A
5:53 am 05:53 Clear 13 -10.6 11 -11.7 92 92 NNW 5 7 30.34 1027 10 16 N/A
6:53 am 06:53 Sunny 16 -8.9 12 -11.1 84 84 NW 5 7 30.34 1028 10 16 N/A
7:53 am 07:53 Sunny 22 -5.6 17 -8.3 82 82 WNW 10 17 30.35 1028 10 16 N/A
8:53 am 08:53 Sunny 29 -1.7 19 -7.2 66 66 NW 9 15 30.32 1027 10 16 N/A
9:53 am 09:53 Sunny 36 2.2 18 -7.8 48 48 W 7 11 30.30 1026 10 16 N/A
10:53 am 10:53 Sunny 41 5 16 -8.9 36 36 WNW 15 24 30.27 1025 10 16 N/A
11:53 am 11:53 Sunny 44 6.7 15 -9.4 31 31 NW 14 22 30.25 1025 10 16 N/A
12:53 pm 12:53 Sunny 48 8.9 14 -10 25 25 WNW 16 26 30.22 1023 10 16 N/A
1:53 pm 13:53 Sunny 51 10.6 11 -11.7 20 20 NW 21 33 30.18 1022 10 16 N/A
2:53 pm 14:53 Sunny 51 10.6 8 -13.3 17 17 NW 16 26 30.18 1022 10 16 N/A
3:53 pm 15:53 Sunny 52 11.1 8 -13.3 17 17 NNW 12 19 30.16 1021 10 16 N/A
4:53 pm 16:53 Sunny 48 8.9 16 -8.9 28 28 NNE 12 19 30.18 1022 10 16 N/A
5:53 pm 17:53 Clear 39 3.9 18 -7.8 43 43 NE 12 19 30.22 1023 10 16 N/A
6:53 pm 18:53 Clear 33 0.6 19 -7.2 56 56 ESE 7 11 30.23 1024 10 16 N/A
7:53 pm 19:53 Clear 28 -2.2 17 -8.3 63 63 E 5 7 30.24 1024 10 16 N/A
8:53 pm 20:53 Clear 26 -3.3 17 -8.3 69 69 ESE 7 11 30.22 1024 10 16 N/A
9:53 pm 21:53 Clear 22 -5.6 16 -8.9 78 78 E 6 9 30.23 1024 10 16 N/A
10:53 pm 22:53 Clear 23 -5 17 -8.3 78 78 ESE 9 15 30.18 1022 10 16 N/A
11:53 pm 23:53 Clear 23 -5 18 -7.8 81 81 ESE 8 13 30.14 1021 10 16 N/A

Powered by AerisWeather